Location: Morrison Observatory
(41.7012°N, 86.2315°W)
Time: 02:51:10
(UTC-04:00)

Daily predictions for brighter satellites

Satellite Brightness Start Highest point End
(mag) Time Altitude Azimuth Time Altitude Azimuth Time Altitude Azimuth
ATLAS 2AS CENTAUR R/B 4.0 03:37:58 41° N 03:37:58 41° N 03:43:14 10° NNE
CZ-2D R/B 4.4 03:44:30 10° NE 03:46:21 20° NE 03:46:21 20° NE
Cosmos 2227 Rocket 4.4 03:53:49 19° E 03:53:49 19° E 03:56:44 10° NE
Cosmos 2344 4.1 03:57:12 55° E 03:57:12 55° E 04:04:33 10° NE
Cosmos 2297 Rocket 4.5 04:01:58 17° E 04:02:02 17° E 04:05:30 10° ENE
Resurs 1-4 Rocket 3.9 04:06:35 10° NNE 04:09:10 28° NE 04:09:10 28° NE
Lacrosse 5 3.7 04:27:02 28° ENE 04:27:02 28° ENE 04:29:40 10° ENE
Cosmos 2333 Rocket 4.4 04:36:03 10° NNW 04:48:08 - SSE 04:36:54 15° NNW
NOSS 3-2 (C) 4.2 04:34:29 10° NNW 04:41:57 69° NE 04:50:00 10° SE
Lacrosse 5 rocket 3.8 04:49:25 20° N 04:49:25 20° N 04:51:17 10° NNE
SL-16 R/B 4.0 04:52:16 25° NNW 04:52:16 25° NNW 04:54:45 10° NNW
ARIANE 5 R/B 4.1 04:52:34 10° N 04:54:51 25° N 04:54:51 25° N
Cosmos 1605 Rocket 3.9 04:55:21 10° N 05:01:32 87° E 05:02:13 72° SSE
Cosmos 2237 Rocket 2.7 04:58:22 10° NNW 05:05:44 47° SSE 05:09:40 10° SSE
CZ-4B R/B 4.3 04:59:01 10° NNE 05:04:08 42° E 05:07:14 22° SSE
Cosmos 1025 Rocket 4.0 05:05:15 44° ENE 05:05:15 44° ENE 05:08:59 10° NNE
NOSS 3-4 (A) 3.3 05:05:23 81° SW 05:05:44 87° NW 05:12:19 10° NE
NOSS 3-4 (C) 3.3 05:05:28 81° SW 05:05:50 88° WNW 05:12:25 10° NE
ATLAS 5 CENTAUR R/B 2.4 05:04:00 48° NNW 05:05:53 84° ENE 05:12:23 10° SE
ADEOS II 4.3 05:03:01 10° NE 05:07:04 22° E 05:11:05 10° SE
Cosmos 2112 Rocket 4.2 05:04:04 10° NNW 05:09:22 68° ENE 05:14:35 10° SSE
Cosmos 1680 Rocket 3.8 05:08:22 10° NNW 05:16:33 28° SSE 05:18:56 10° SSE
Okean O Rocket 1.7 05:18:02 10° NNE 05:22:15 74° ENE 05:22:15 74° ENE
Cosmos 1606 Rocket 4.0 05:18:14 10° N 05:22:35 58° E 05:25:38 18° SSE
SL-16 R/B 2.9 05:18:49 10° NNW 05:24:24 54° ENE 05:29:57 10° SE
CZ-2D R/B 3.3 05:24:33 10° N 05:27:41 28° NW 05:27:41 28° NW
Cosmos 1726 Rocket 3.9 05:28:51 10° N 05:33:13 64° E 05:37:31 10° SSE
Meteor 1-13 Rocket 4.2 05:33:03 57° WSW 05:33:50 62° WNW 05:39:31 10° N
Cosmos 2227 Rocket 2.2 05:35:40 55° W 05:36:17 58° WNW 05:41:53 10° NNE
Cosmos 220 Rocket 4.3 05:38:13 51° NNW 05:38:13 51° NNW 05:41:42 10° NNE
Cosmos 2061 Rocket 4.3 05:33:54 10° N 05:40:13 69° E 05:46:33 10° SSE
Cosmos 2100 Rocket 4.1 05:34:14 10° N 05:40:30 77° E 05:46:47 10° SSE
Cosmos 1802 Rocket 4.4 05:35:46 10° N 05:41:53 62° E 05:47:57 10° SSE
RESURS DK-1 2.6 05:45:28 54° NW 05:45:28 54° NW 05:49:13 10° NNE
Cosmos 2297 Rocket 2.1 05:43:50 46° SW 05:45:26 67° WNW 05:51:05 10° NNE
Cosmos 1892 Rocket 3.6 05:43:29 30° S 05:45:42 82° E 05:50:12 10° N
Cosmos 1346 Rocket 2.6 05:45:29 66° S 05:46:00 89° W 05:50:02 10° N
Aureole 2 Rocket 3.7 05:44:27 10° N 05:47:45 39° ENE 05:50:45 10° SE
Thor Agena Rocket 3.7 05:43:16 10° SSE 05:48:34 79° ENE 05:53:52 10° NNW
IRS-1C Rocket 4.1 05:43:26 10° N 05:48:40 63° WNW 05:50:31 39° SW
PSLV R/B 4.0 05:46:39 10° NNE 05:50:58 60° E 05:55:10 10° S
Resurs 1-4 Rocket 3.6 05:47:16 10° NNW 05:50:15 21° NW 05:50:15 21° NW
Cosmos 2150 Rocket 4.3 05:47:14 15° S 05:51:23 66° ESE 05:56:30 10° NNE
CZ-2C R/B 3.8 05:51:41 43° SW 05:52:43 53° W 05:57:16 10° NNW
Tiangong 1 1.4 05:53:55 61° NE 05:53:55 61° NE 05:56:34 10° E
NOSS 3-2 (A) 4.3 05:47:06 10° NW 05:54:06 41° WSW 06:01:31 10° S
Cosmos 2228 3.3 05:57:07 10° N 06:01:31 71° E 06:05:51 10° SSE
CZ-4B DEB 4.2 05:59:15 10° N 06:04:40 63° WNW 06:09:02 16° SSW
Cosmos 292 Rocket 3.8 06:00:06 10° NNW 06:04:53 58° WSW 06:09:38 10° S
Lacrosse 5 2.6 06:06:15 29° WNW 06:07:54 38° NW 06:12:37 10° NE
Cosmos 2098 Rocket 3.3 06:05:27 10° N 06:09:22 70° E 06:14:23 10° SSE
BREEZE M DEB (TANK) 3.6 06:09:00 26° NW 06:10:39 40° N 06:19:06 10° ENE
Cosmos 1000 Rocket 4.4 06:04:48 10° SSW 06:11:07 76° W 06:17:29 10° N
USA 215 4.2 06:07:28 10° S 06:12:25 23° WSW 06:12:34 23° WSW
Cosmos 2016 Rocket 4.0 06:08:19 10° N 06:14:43 88° W 06:20:59 10° S
DELTA 2 R/B (1) 3.8 06:13:35 26° WSW 06:16:40 63° SSE 06:22:10 10° E
Cosmos 724 4.4 06:11:27 10° NW 06:17:34 61° WSW 06:23:40 10° SSE
Cosmos 1898 Rocket 3.5 06:14:55 14° SSW 06:19:26 65° WNW 06:24:43 10° NNE
Cosmos 2173 Rocket 4.0 06:14:11 10° NNW 06:20:08 58° W 06:26:08 10° S
Meteor 1-15 Rocket 4.2 06:18:02 10° NNW 06:23:29 55° W 06:28:56 10° S
Meteor 1-31 Rocket 3.3 06:20:16 10° NNE 06:24:08 60° E 06:28:01 10° S
ADEOS Rocket 3.3 06:17:35 10° N 06:24:38 60° WNW 06:30:56 10° SSW
Cosmos 2058 Rocket 3.4 06:22:38 10° NNW 06:26:45 42° W 06:30:51 10° SSW
Genesis I 4.3 06:23:09 10° S 06:26:57 44° ESE 06:30:47 10° NE
Cosmos 1459 Rocket 4.2 06:21:04 10° NNW 06:27:10 50° W 06:33:13 10° SSW
Okean-O 2.6 06:23:12 10° N 06:27:38 69° WNW 06:32:01 10° SSW
CENTAUR R/B 3.1 06:19:44 10° NW 06:27:38 89° WSW 06:36:01 10° SSE
Lacrosse 5 rocket 3.9 06:26:15 10° NNW 06:28:00 12° N 06:29:45 10° NNE
CZ-4B R/B 4.1 06:26:34 10° N 06:30:19 28° WNW 06:32:25 19° WSW
NOSS 2-2 (D) 3.8 06:26:30 10° SSW 06:30:32 68° ESE 06:35:11 10° NE
USA 129 1.6 06:29:26 10° SSE 06:31:20 68° E 06:33:04 10° N
Cosmos 1937 Rocket 3.5 06:26:37 10° SSW 06:31:49 70° WNW 06:37:06 10° NNE
Cosmos 2123 Rocket 4.0 06:26:52 10° S 06:33:02 89° ESE 06:39:16 10° N
Cosmos 1515 3.6 06:35:01 10° S 06:38:49 85° W 06:42:41 10° N
COSMO-SKYMED 1 3.6 06:35:14 10° SSE 06:39:25 49° ENE 06:43:37 10° N
Cosmos 1666 4.0 06:36:36 10° NW 06:39:29 20° W 06:41:53 12° SW
Feng Yun 1-1 Rocket 4.3 06:34:34 10° N 06:40:11 67° WNW 06:45:55 10° SSW
NOAA 6 4.4 06:36:12 10° NNE 06:41:25 71° ESE 06:46:35 10° S
USA 116 4.5 06:36:45 10° S 06:41:41 48° W 06:46:11 10° NNW
Intercosmos 25 Rocket 4.2 06:40:03 10° N 06:43:36 60° E 06:48:47 10° SSE
OPS 6432 4.5 06:41:17 15° SW 06:43:51 49° NW 06:46:51 10° NNE
CZ-4B R/B 4.1 06:40:01 10° N 06:44:30 27° WNW 06:49:02 10° WSW
NOSS 2-2 (C) 3.5 06:41:46 10° SW 06:45:53 85° NW 06:50:40 10° NE
EXPRESS MD2 3.7 06:43:31 13° WNW 06:46:35 72° SSW 06:53:22 10° SE
ADEOS II 2.4 06:41:59 10° N 06:47:00 46° WNW 06:52:00 10° SW
Cosmos 2237 Rocket 3.8 06:48:08 13° WSW 06:48:08 13° WSW 06:49:47 10° WSW
NOSS 2-2 (E) 3.5 06:43:21 10° SW 06:47:29 74° NW 06:52:24 10° NNE
ATLAS 5 CENTAUR R/B 3.7 06:46:03 10° WNW 06:50:04 18° WSW 06:54:14 10° SSW
Cosmos 1340 3.2 06:48:30 10° S 06:52:15 64° E 06:56:02 10° NNE
Cosmos 2227 4.2 06:48:49 10° SSW 06:54:34 73° WNW 07:00:21 10° NNE
Cosmos 1626 Rocket 3.8 06:53:00 10° SSW 06:57:13 46° WNW 07:01:25 10° N
Okean O Rocket 3.6 06:56:50 10° NW 06:58:11 11° WNW 06:59:31 10° W
Radarsat Rocket 4.3 06:54:23 10° NNE 07:01:12 86° ESE 07:07:16 10° SSW
Iridium 4 Rocket 3.9 07:01:29 10° SSE 07:06:20 62° E 07:10:48 10° N
SL-16 R/B 3.3 07:03:52 10° NW 07:08:04 22° W 07:12:15 10° SSW
CZ-4 R/B 4.2 07:05:32 10° NE 07:08:48 24° E 07:12:06 10° SSE
Cosmos 468 4.5 07:06:22 10° NNW 07:11:37 80° WSW 07:16:50 10° SSE
SL-24 R/B 3.9 07:08:37 10° N 07:12:55 64° WNW 07:16:44 10° SSW
Cosmos 1953 Rocket 4.3 07:10:35 10° S 07:14:58 62° E 07:19:25 10° NNE
